Other Public Products
Issued by NWS Grand Forks, ND

Home | Current Version | Previous Version | Graphics & Text | Print | Product List | Glossary On
Versions: 1 2 3 4 5 6 7 8 9 10 11 12 13 14 15 16 17 18 19 20 21 22 23 24 25 26 27 28 29 30 31 32 33 34 35 36 37 38 39 40 41 42 43 44 45 46 47 48 49 50
000
FPUS83 KFGF 250410
OPUFGF
PRAIRIE TO PINES WEATHER ROUNDUP
NATIONAL WEATHER SERVICE EASTERN NORTH DAKOTA/GRAND FORKS ND
1000 PM CST SAT JAN 24 2015

 **SATELLITE DATA USED TO AUGMENT SKY COVER AT AUTOMATED STATIONS**
 *****  WEATHER ACROSS EASTERN NORTH DAKOTA  *****

CITY           SKY/WX    TMP DP  RH WIND       PRES   REMARKS
GRAND FORKS    CLOUDY    22  17  81 N14       29.84R WCI   9
GRAND FORKS AF CLOUDY    20  15  81 N12       29.84R WCI   9
GRAND CITY NWS   N/A     23 N/A N/A N12         N/A  WCI  12
BUXTON         NOT AVBL
DEVILS LAKE    CLOUDY    19  16  86 NE8       29.82S WCI   9
FARGO          CLOUDY    32  28  85 N13       29.76R WCI  22
WAHPETON ARPT  CLOUDY    32  30  93 N13G18    29.73R WCI  22
$$

 *****  WEATHER ACROSS CENTRAL AND WESTERN NORTH DAKOTA  *****

CITY           SKY/WX    TMP DP  RH WIND       PRES   REMARKS
JAMESTOWN      LGT SNOW  27  24  89 N12       29.79R FOG     WCI  17
BISMARCK       LGT RAIN  35  32  88 NW10      29.81R
MINOT          CLOUDY    31  28  89 CALM      29.79R FOG
MINOT AFB      CLOUDY    28  28 100 N5        29.79R WCI  23
GARRISON         N/A     36  33  89 NW17      29.79R
WILLISTON      CLOUDY    37  31  78 W15       29.89S
DICKINSON      CLOUDY    38  30  73 NW21G38   29.87R
HETTINGER      CLOUDY    38  30  73 NW25G35   29.90R
$$

 *****  OTHER OBSERVATIONS NORTHEAST NORTH DAKOTA  *****

CITY           SKY/WX    TMP DP  RH WIND       PRES   REMARKS
WALHALLA         N/A     16  14  93 N8        29.89R WCI   5
LANGDON        CLOUDY    14  10  85 NE10      29.82S WCI   1
CAVALIER       MOCLDY    18  14  86 N12       29.88R WCI   5
GRAFTON        NOT AVBL
CANDO          LGT SNOW  18  16  93 NE10      29.84R WCI   6
FORT TOTTEN      N/A     19  17  93 N6        29.95  WCI  11
ROLLA          LGT SNOW  16  16 100 NE8       29.82S WCI   5
RUGBY          LGT SNOW  19  18  93 E13       29.81R WCI   7
 ***** THE ABOVE OBSERVATIONS ARE NON NWS ARE NOT QUALITY
        CONTROLLED AND MAY MIS-REPORT RAIN FOR SNOW...
$$

 *****  OTHER OBSERVATIONS SOUTHEAST NORTH DAKOTA *****

CITY           SKY/WX    TMP DP  RH WIND       PRES   REMARKS
COOPERSTOWN    NOT AVBL
VALLEY CITY    LGT SNOW  25  25 100 N9        29.79R WCI  15
OAKES          LGT SNOW  28  28 100 N14       29.76R WCI  17
GWINNER        CLOUDY    32  32 100 N16       29.76R WCI  21
SHEYENNE NWR     N/A     29  28  94 N12       29.95  WCI  19
BUFFALO        NOT AVBL
WYNDMERE         N/A     32  34 100 N10         N/A  WCI  24
 ***** THE ABOVE OBSERVATIONS ARE NON NWS ARE NOT QUALITY
       CONTROLLED AND MAY MIS-REPORT RAIN FOR SNOW...
$$

  *****  WEATHER ACROSS NORTHERN MINNESOTA  *****

CITY           SKY/WX    TMP DP  RH WIND       PRES   REMARKS
FLAG ISLAND    CLOUDY    10   1  67 NE7       29.88R WCI   0
WARROAD        CLOUDY    12   7  79 NE14      29.87R WCI  -3
ROSEAU         CLOUDY    16   9  73 E13       29.86R WCI   2
HALLOCK        CLOUDY    21  12  68 NE6       29.86R WCI  14
THF RVR FALLS  CLOUDY    19  12  73 NE12      29.80R WCI   7
HALSTAD          N/A     29  23  78 N10         N/A  WCI  20
FOSSTON        CLOUDY    21  14  73 NE13      29.77S WCI   9
BAUDETTE       CLOUDY    13   5  70 E10       29.84R WCI   0
WASKISH        CLOUDY    16   9  73 NE10      29.82R WCI   3
CROOKSTON      CLOUDY    21  16  79 NE10      29.82R WCI  10
$$
  *****  WEATHER ACROSS CENTRAL AND WEST MINNESOTA  *****

CITY           SKY/WX    TMP DP  RH WIND       PRES   REMARKS
BEMIDJI        CLOUDY    22  14  70 N8        29.76R WCI  13
PARK RAPIDS    CLOUDY    31  25  78 NE6       29.71R
WADENA         CLOUDY    32  28  86 NE8       29.69R WCI  25
DETROIT LAKES  MIX PCPN  32  30  93 NE5       29.73R
MOORHEAD       RAIN      32  32 100 N13       29.76R WCI  22
FERGUS FALLS   LGT SNOW  32  32 100 N8        29.74R WCI  25
ELBOW LAKE     LGT SNOW  32  32  99 N7        29.69R
MORRIS MN      LGT SNOW  34  32  93 N9        29.67R VSB 1
STAPLES        CLOUDY    34  28  80 NE5       29.69R
WHEATON        LGT SNOW  30  30 100 N12       29.73R WCI  21
$$
  *****  WEATHER ELSEWHERE ACROSS MINNESOTA  *****

CITY           SKY/WX    TMP DP  RH WIND       PRES   REMARKS
DULUTH         CLOUDY    23  17  78 E20G25    29.76R WCI   8
INTRNTL FALLS  PTCLDY     8   1  73 NE7       29.86R WCI  -3
ELY            CLOUDY     9   3  78 E5        29.82R WCI   0
CLOQUET        CLOUDY    25  19  80 E14G22    29.76R WCI  13
BRAINERD       CLOUDY    33  28  81 NE10      29.70R WCI  25
HIBBING        CLOUDY    23  13  65 NE8       29.76R WCI  14
ALEXANDRIA     LGT SNOW  33  31  92 NE12      29.67R FOG     WCI  24
SAINT CLOUD    CLOUDY    35  31  85 NE8       29.65R
MINNEAPOLIS    CLOUDY    36  30  79 NE7       29.63R
$$

  *****  WEATHER ACROSS SOUTH DAKOTA  *****

CITY           SKY/WX    TMP DP  RH WIND       PRES   REMARKS
SIOUX FALLS    LGT RAIN  37  35  92 N8        29.58R
BROOKINGS      NOT AVBL
WATERTOWN      LGT SNOW  32  30  92 N15       29.64R FOG     WCI  22
HURON          MIX PCPN  33  31  92 N21       29.69R FOG     WCI  21
SISSETON         N/A     32  32 100 N14       29.70  WCI  22
ABERDEEN       LGT SNOW  33  30  88 N18       29.76R FOG     WCI  22
MITCHELL       CLOUDY    38  35  89 N26G40    29.65R
PIERRE         LGT RAIN  37  34  89 NW22G28   29.79R
MOBRIDGE       LGT RAIN  36  34  92 NW15      29.78R
RAPID CITY     PTCLDY    42  26  53 NW30G41   29.95R
$$

  *****  SOME WEATHER IN NEARBY STATES *****

CITY           SKY/WX    TMP DP  RH WIND       PRES   REMARKS
GLASGOW MT     CLEAR     33  28  81 NW9       30.01S
GREAT FALLS MT CLOUDY    43  32  65 SW12      30.12F
CHEYENNE WY    CLOUDY    34  27  75 N12       30.11R
SCOTTSBLUFF NE MOCLDY    37  32  82 NW17      30.05R
OMAHA NE       CLOUDY    46  39  76 W8        29.60F
DES MOINES IA  LGT RAIN  43  35  73 SW10      29.58F
DAVENPORT IA   CLOUDY    35  31  85 S5        29.61F
CHICAGO IL     CLOUDY    32  29  88 CALM      29.67F
EAU CLAIRE WI  CLOUDY    33  28  81 NE5       29.64R
LA CROSSE WI   CLOUDY    33  29  85 W3        29.63S
$$

  *****  SOME NATIONAL WEATHER *****

CITY           SKY/WX    TMP DP  RH WIND       PRES   REMARKS
LA GUARDIA NY  CLOUDY    35  25  66 NW15G21   29.48R
RALEIGH NC     CLEAR     37  24  59 CALM      29.80R
ATLANTA GA     CLEAR     37  26  64 SW5       29.97R
NEW ORLEANS LA PTCLDY    46  38  73 SW9       30.10R
OKLAHOMA CITY  MOCLDY    45  33  63 SW8       29.91F
ALBUQUERQUE NM PTCLDY    40  20  44 N5        30.24R
SALT LAKE CITY CLOUDY    35  28  75 N6        30.48R
LOS ANGELES CA CLEAR     67  33  28 SE3       30.01R
BOISE ID       CLEAR     35  31  85 CALM      30.46S
SEATTLE WA     CLOUDY    55  53  93 S7        30.24F
$$

*** WEATHER ACROSS MANITOBA...SASKATCHEWAN AND ONTARIO ***
                ***ONTARIO***

CITY           SKY/WX    TMP DP  RH WIND       PRES   REMARKS
GERALDTON      CLEAR    -18 -24  76 NW6       29.86R WCI -33
THUNDER BAY    CLEAR      3  -6  66 N2        29.94R
SIOUX LOOKOUT  PTCLDY    -4  -9  77 E5        29.94R WCI -15
TORONTO        MOCLDY    32  23  69 NW16G24   29.52R WCI  21
BIG TROUT LK   CLEAR    -15 -18  84 N6        30.03R WCI -29
PICKLE LAKE    NOT AVBL
DRYDEN         CLEAR     -2  -8  78 NE10      29.91R WCI -19
KENORA         CLOUDY     5  -4  66 E12       29.89R WCI -11
$$
                *** MANITOBA***

CITY           SKY/WX    TMP DP  RH WIND       PRES   REMARKS
BRANDON        LGT SNOW  12   9  85 E13       29.87S WCI  -3
DAUPHIN        LGT SNOW   9   5  85 E7        29.92S WCI  -3
ISLAND LAKE    CRYSTALS -17 -20  83 CALM      30.06R
PILOT MOUND    NOT AVBL
THE PAS        CLOUDY     1  -4  78 SE6       29.98R WCI -10
THOMPSON       MOCLDY    -9 -15  77 VRB2      30.05S
WINNIPEG       CLOUDY    14   9  79 N6        29.91R WCI   5
LYNN LAKE      FLURRIES  -6  -9  84 SE7       29.92F WCI -20
CHURCHILL      CLEAR    -26 -31  75 W8        30.13S WCI -45
GILLAM         PTCLDY   -20 -26  76 W2        30.11R
$$
                ***SASKATCHEWAN***

CITY           SKY/WX    TMP DP  RH WIND       PRES   REMARKS
ESTEVAN        CLOUDY    36  32  87 NW21G26   29.81S
KINDERSLEY     NOT AVBL
LLOYDMINSTER   MOCLDY    30  25  80 W13       29.90F WCI  20
PRINCE ALBERT  MOCLDY    16  14  93 SW5       29.93R WCI   9
REGINA         NOT AVBL



USA.gov is the U.S. government's official web portal to all federal, state and local government web resources and services.